CW5917 Weather Reports


time (UTC)temp
F
wind
direction
speed
knots
gust
knots
rain 1hr
in
rain 24hr
in
rain mn
in
humidity
%
barometer
mb
20260904034529 77 120 0.9 7.8 0.00 0.05 0.05 91 1014.2
20260904034022 77 89 2.6 7.8 0.00 0.05 0.05 91 1014.3
20260904033535 77 115 0.9 5.2 0.00 0.05 0.05 91 1014.4
20260904033033 77 122 0.9 5.2 0.00 0.05 0.05 91 1014.5
20260904032528 77 138 2.6 6.1 0.00 0.05 0.05 91 1014.5
20260904032020 77 126 2.6 6.1 0.00 0.05 0.05 91 1014.6
20260904031520 77 117 2.6 6.1 0.00 0.05 0.05 91 1014.6
20260904031029 77 117 2.6 6.1 0.00 0.05 0.05 91 1014.7
20260904030525 77 129 2.6 6.1 0.00 0.05 0.05 91 1014.6
20260904030026 77 108 2.6 5.2 0.00 0.05 0.05 91 1014.6
20260904025521 77 111 1.7 5.2 0.00 0.05 0.05 91 1014.5
20260904025035 77 117 2.6 6.1 0.00 0.05 0.05 91 1014.6
20260904024525 77 80 2.6 6.1 0.00 0.05 0.05 90 1014.5
20260904024036 77 91 3.5 6.1 0.00 0.05 0.05 90 1014.3
20260904023538 77 107 2.6 6.1 0.00 0.05 0.05 90 1014.2
20260904023026 77 79 3.5 6.1 0.00 0.05 0.05 90 1014.2
20260904022522 77 109 2.6 6.1 0.00 0.05 0.05 90 1014.1
20260904022057 78 85 3.5 6.1 0.00 0.05 0.05 90 1014.1
20260904021529 78 123 2.6 7.0 0.00 0.05 0.05 90 1014.2
20260904021025 78 71 2.6 7.0 0.00 0.05 0.05 90 1014.3
20260904020541 78 115 1.7 5.2 0.00 0.05 0.05 90 1014.2
20260904020028 78 113 1.7 3.5 0.00 0.05 0.05 90 1014.1
20260904015544 78 113 1.7 4.3 0.00 0.05 0.05 90 1014.0
20260904015035 78 90 1.7 5.2 0.00 0.05 0.05 90 1014.0
20260904014517 78 104 2.6 6.1 0.00 0.05 0.05 90 1013.9
20260904014033 78 101 2.6 6.1 0.00 0.05 0.05 90 1013.8
20260904013517 78 105 2.6 6.1 0.00 0.05 0.05 90 1013.8
20260904013037 78 128 2.6 5.2 0.00 0.05 0.05 90 1013.7
20260904012521 78 110 2.6 5.2 0.00 0.05 0.05 90 1013.5
20260904012034 78 99 2.6 3.5 0.00 0.05 0.05 90 1013.5
20260904011520 78 124 2.6 5.2 0.00 0.05 0.05 90 1013.7
20260904011056 79 93 0.9 5.2 0.00 0.05 0.05 89 1013.7
20260904010528 79 93 2.6 5.2 0.00 0.05 0.05 89 1013.8
20260904010021 79 93 1.7 3.5 0.00 0.05 0.05 89 1013.8
20260904005531 79 103 0.9 3.5 0.00 0.05 0.05 89 1013.7
20260904005018 79 103 0.9 3.5 0.00 0.05 0.05 89 1013.7
20260904004536 79 103 1.7 3.5 0.00 0.05 0.05 89 1013.6
20260904004028 80 103 1.7 3.5 0.00 0.05 0.05 88 1013.6
20260904003525 80 57 0.0 2.6 0.00 0.05 0.05 88 1013.5
20260904003047 80 57 0.0 1.7 0.00 0.05 0.05 87 1013.5
20260904002520 80 57 0.9 3.5 0.00 0.05 0.05 87 1013.5
20260904002033 80 57 1.7 4.3 0.00 0.05 0.05 87 1013.5
20260904001521 81 57 2.6 4.3 0.00 0.05 0.05 86 1013.4
20260904001035 81 110 1.7 3.5 0.00 0.05 0.05 84 1013.7
20260904000520 82 110 1.7 3.5 0.00 0.05 0.05 83 1013.5
20260904000028 82 110 1.7 3.5 0.00 0.05 0.05 83 1013.4
20260903235525 82 110 0.9 2.6 0.00 0.05 0.05 83 1013.4
20260903235039 82 110 0.0 2.6 0.00 0.05 0.05 82 1013.3
20260903234535 82 110 1.7 5.2 0.00 0.05 0.05 82 1013.3
20260903234050 82 110 1.7 3.5 0.00 0.05 0.05 82 1013.4
20260903233542 82 110 1.7 3.5 0.00 0.05 0.05 82 1013.2
20260903233030 82 159 0.0 2.6 0.00 0.05 0.05 83 1013.3
20260903232525 82 159 0.9 4.3 0.00 0.05 0.05 84 1013.1
20260903232057 82 174 1.7 4.3 0.00 0.05 0.05 84 1013.2
20260903231530 82 115 0.0 3.5 0.00 0.05 0.05 85 1013.0
20260903231026 81 136 0.9 3.5 0.00 0.05 0.05 85 1013.1
20260903230521 81 138 0.9 5.2 0.00 0.05 0.05 85 1012.9
20260903230021 81 183 1.7 5.2 0.00 0.05 0.05 85 1013.0
20260903225552 81 142 0.9 5.2 0.00 0.05 0.05 85 1012.9
20260903225021 82 180 2.6 6.1 0.00 0.05 0.05 84 1013.0
20260903224529 82 155 3.5 6.1 0.00 0.05 0.05 84 1012.8
20260903224024 82 193 3.5 5.2 0.00 0.05 0.05 84 1012.8
20260903223539 82 142 2.6 5.2 0.00 0.05 0.05 83 1012.8
20260903223036 82 95 2.6 7.0 0.00 0.05 0.05 83 1013.0
20260903222547 82 186 2.6 5.2 0.00 0.05 0.05 82 1013.1
20260903222041 83 167 1.7 7.0 0.00 0.05 0.05 82 1012.7
20260903221528 83 122 2.6 5.2 0.00 0.05 0.05 81 1012.8
20260903221023 83 199 1.7 5.2 0.00 0.05 0.05 83 1013.0
20260903220517 83 192 1.7 6.1 0.00 0.05 0.05 82 1012.9
20260903220031 83 169 1.7 7.8 0.00 0.05 0.05 82 1013.1
20260903215517 83 186 3.5 7.0 0.00 0.05 0.05 83 1013.3
20260903215059 82 169 4.3 8.7 0.00 0.05 0.05 82 1013.4
20260903214527 83 173 2.6 7.0 0.00 0.05 0.05 82 1013.4
20260903214021 83 205 4.3 7.0 0.00 0.05 0.05 82 1013.7
20260903213532 82 202 3.5 7.0 0.00 0.05 0.05 82 1013.7
20260903213052 82 209 4.3 7.0 0.00 0.05 0.05 81 1013.7
20260903212537 82 150 3.5 7.8 0.00 0.05 0.05 82 1013.6
20260903212035 82 202 5.2 8.7 0.00 0.05 0.05 83 1013.6
20260903211600 81 175 5.2 8.7 0.00 0.05 0.05 83 1013.4
20260903211029 81 186 5.2 8.7 0.00 0.05 0.05 83 1013.3
20260903210525 82 189 3.5 7.8 0.00 0.05 0.05 83 1013.4
20260903210048 82 180 3.5 8.7 0.00 0.05 0.05 82 1013.5
20260903205522 82 205 4.3 8.7 0.00 0.05 0.05 82 1013.5
20260903205035 82 179 6.1 12.2 0.00 0.05 0.05 82 1013.6
20260903204519 82 185 6.1 10.4 0.00 0.05 0.05 81 1013.5
20260903204038 82 166 7.0 11.3 0.00 0.05 0.05 81 1013.7
20260903203519 82 197 7.8 11.3 0.00 0.05 0.05 80 1013.8
20260903203031 82 205 7.8 11.3 0.00 0.05 0.05 80 1013.9
20260903202521 82 225 5.2 7.8 0.00 0.05 0.05 80 1013.8
20260903202036 82 209 4.3 7.0 0.00 0.05 0.05 80 1014.1
20260903201533 82 183 4.3 7.8 0.00 0.05 0.05 80 1014.2
20260903201028 82 184 5.2 7.8 0.00 0.05 0.05 79 1014.1
20260903200535 82 186 3.5 8.7 0.00 0.05 0.05 77 1014.1
20260903200036 83 169 5.2 8.7 0.00 0.05 0.05 75 1014.0
20260903195517 84 163 3.5 7.8 0.00 0.05 0.05 74 1014.0
20260903195037 84 128 1.7 9.6 0.00 0.05 0.05 76 1013.9
20260903194527 84 112 3.5 9.6 0.00 0.05 0.05 76 1014.0
20260903194019 84 150 2.6 5.2 0.00 0.05 0.05 78 1014.1
20260903193516 83 198 2.6 7.0 0.00 0.05 0.05 78 1014.1
20260903193037 82 130 1.7 6.1 0.00 0.05 0.05 79 1014.1
20260903192519 81 162 1.7 5.2 0.00 0.05 0.05 78 1014.1
20260903192034 81 163 3.5 7.8 0.00 0.05 0.05 78 1014.1
20260903191531 81 161 5.2 7.8 0.00 0.05 0.05 78 1014.2
20260903191037 82 207 1.7 7.8 0.00 0.05 0.05 77 1014.2
20260903190530 83 148 2.6 7.8 0.00 0.05 0.05 73 1014.3
20260903190048 83 95 3.5 7.8 0.00 0.05 0.05 78 1014.4
20260903185542 83 118 2.6 6.1 0.00 0.05 0.05 76 1014.4
20260903185035 82 199 1.7 6.1 0.00 0.05 0.05 78 1014.4
20260903184523 81 153 2.6 7.8 0.00 0.05 0.05 80 1014.5
20260903184019 81 168 2.6 5.2 0.00 0.05 0.05 79 1014.6
20260903183530 81 123 2.6 6.1 0.00 0.05 0.05 84 1014.6
20260903183021 79 162 2.6 6.1 0.00 0.05 0.05 85 1014.7
20260903182516 78 124 2.6 3.5 0.00 0.05 0.05 82 1014.8
20260903182035 78 119 1.7 3.5 0.00 0.05 0.05 82 1015.0
20260903181535 78 115 1.7 6.1 0.00 0.05 0.05 82 1015.1
20260903181028 78 97 2.6 6.1 0.00 0.05 0.05 82 1015.1
20260903180519 78 82 1.7 6.1 0.00 0.05 0.05 84 1015.3
20260903180028 77 63 1.7 5.2 0.00 0.05 0.05 84 1015.1
20260903175545 77 107 2.6 6.1 0.00 0.05 0.05 83 1015.3
20260903175020 77 110 3.5 6.1 0.00 0.05 0.05 83 1015.4
20260903174534 77 26 3.5 6.1 0.00 0.05 0.05 83 1015.4
20260903174017 77 122 2.6 5.2 0.00 0.05 0.05 84 1015.3
20260903173532 77 101 4.3 7.0 0.00 0.05 0.05 83 1015.3
20260903173023 77 118 2.6 7.8 0.00 0.05 0.05 83 1015.4
20260903172519 78 114 4.3 7.8 0.00 0.05 0.05 82 1015.3
20260903172037 78 117 2.6 7.8 0.00 0.05 0.05 84 1015.1
20260903171532 77 107 4.3 8.7 0.00 0.05 0.05 84 1015.0
20260903171046 77 106 2.6 8.7 0.00 0.05 0.05 85 1015.0
20260903170521 76 99 5.2 7.0 0.00 0.05 0.05 87 1015.0
20260903170024 75 110 2.6 5.2 0.00 0.05 0.05 87 1015.2
20260903165520 75 110 0.9 5.2 0.00 0.05 0.05 86 1015.4
20260903165032 75 110 2.6 5.2 0.00 0.05 0.05 87 1015.2
20260903164519 75 110 1.7 7.0 0.00 0.05 0.05 87 1015.3
20260903164031 75 104 2.6 8.7 0.00 0.05 0.05 87 1015.4
20260903163516 75 115 5.2 8.7 0.00 0.05 0.05 87 1015.1
20260903163027 75 131 3.5 7.0 0.00 0.05 0.05 88 1015.2
20260903162540 75 113 0.9 5.2 0.00 0.05 0.05 88 1015.1
20260903162035 75 67 1.7 7.0 0.00 0.05 0.05 89 1015.1
20260903161533 75 81 3.5 7.0 0.00 0.05 0.05 90 1015.2
20260903161028 74 98 3.5 6.1 0.00 0.05 0.05 89 1015.3
20260903160521 74 128 2.6 4.3 0.00 0.05 0.05 89 1015.1
20260903160047 74 168 2.6 5.2 0.00 0.05 0.05 90 1015.2
20260903155522 74 163 1.7 5.2 0.00 0.05 0.05 90 1014.9
20260903155018 74 162 2.6 6.1 0.00 0.05 0.05 90 1014.8
20260903154528 73 97 2.6 6.1 0.00 0.05 0.05 90 1014.7
20260903154043 73 117 2.6 4.3 0.02 0.05 0.05 90 1014.6
20260903153532 73 116 2.6 5.2 0.04 0.05 0.05 91 1014.6
20260903153019 72 36 0.9 4.3 0.05 0.05 0.05 91 1014.8
20260903152553 72 36 3.5 6.1 0.05 0.05 0.05 90 1014.6
20260903151534 71 69 3.5 7.0 0.05 0.05 0.05 90 1014.5
20260903151046 71 56 1.7 4.3 0.05 0.05 0.05 89 1015.2
20260903150542 71 59 1.7 7.8 0.05 0.05 0.05 89 1015.5
20260903150037 71 311 1.7 7.8 0.05 0.05 0.05 88 1016.0
20260903145553 72 346 3.5 9.6 0.05 0.05 0.05 88 1016.1
20260903145021 72 290 4.3 12.2 0.05 0.05 0.05 87 1016.2
20260903144529 72 312 7.0 16.5 0.04 0.04 0.04 86 1016.4
20260903144046 73 340 10.4 16.5 0.02 0.02 0.02 85 1016.2
20260903143520 73 279 8.7 15.6 0.00 0.00 0.00 85 1016.8
20260903143042 74 254 7.0 14.8 0.00 0.00 0.00 84 1016.6
20260903142532 74 232 8.7 14.8 0.00 0.00 0.00 84 1016.4
20260903142038 74 236 7.8 18.2 0.00 0.00 0.00 84 1016.1
20260903141525 74 272 9.6 20.0 0.00 0.00 0.00 84 1015.9
20260903141021 75 316 10.4 20.9 0.00 0.00 0.00 84 1016.2
20260903140516 75 276 13.0 23.5 0.00 0.00 0.00 84 1016.3
20260903140054 76 340 12.2 26.1 0.00 0.00 0.00 84 1016.2
20260903135526 76 264 13.9 26.1 0.00 0.00 0.00 85 1016.4
20260903135041 76 288 13.9 24.3 0.00 0.00 0.00 87 1016.2
20260903134525 76 293 12.2 24.3 0.00 0.00 0.00 89 1015.8
20260903134041 76 241 9.6 13.9 0.00 0.00 0.00 91 1015.5
20260903133532 76 237 7.0 12.2 0.00 0.00 0.00 91 1015.2
20260903133028 76 252 7.0 12.2 0.00 0.00 0.00 92 1015.3
20260903132523 76 261 4.3 6.1 0.00 0.00 0.00 92 1014.9
20260903132018 76 221 2.6 3.5 0.00 0.00 0.00 92 1014.6
20260903131536 76 300 1.7 3.5 0.00 0.00 0.00 92 1014.6
20260903131025 76 300 2.6 3.5 0.00 0.00 0.00 92 1014.3
20260903130518 75 300 2.6 3.5 0.00 0.00 0.00 93 1014.3
20260903130030 75 300 0.0 1.7 0.00 0.00 0.00 93 1014.3
20260903125526 75 300 0.0 2.6 0.00 0.00 0.00 93 1014.4
20260903125040 75 300 0.0 3.5 0.00 0.00 0.00 93 1014.4
20260903124532 75 300 0.9 3.5 0.00 0.00 0.00 93 1014.3
20260903124037 75 300 2.6 10.4 0.00 0.00 0.00 93 1014.6
20260903123529 75 317 7.0 13.0 0.00 0.00 0.00 93 1014.7
20260903123054 75 15 9.6 13.0 0.00 0.00 0.00 93 1014.6
20260903122528 75 311 3.5 7.0 0.00 0.00 0.00 93 1014.1
20260903122026 75 224 5.2 7.0 0.00 0.00 0.00 93 1013.8
20260903121531 75 211 5.2 7.0 0.00 0.00 0.00 94 1013.5
20260903121037 75 230 4.3 7.8 0.00 0.00 0.00 94 1013.4
20260903120531 75 213 5.2 7.8 0.00 0.00 0.00 94 1013.3
20260903120022 75 213 5.2 7.8 0.00 0.00 0.00 94 1013.4
20260903115519 75 227 5.2 7.8 0.00 0.00 0.00 94 1013.3
20260903115032 75 210 4.3 6.1 0.00 0.00 0.00 94 1013.3
20260903114519 75 200 3.5 7.0 0.00 0.00 0.00 94 1013.3
20260903114031 75 241 3.5 6.1 0.00 0.00 0.00 95 1013.3
20260903113519 75 223 3.5 6.1 0.00 0.00 0.00 95 1013.3
20260903113037 74 221 3.5 6.1 0.00 0.00 0.00 95 1013.3
20260903112530 74 223 3.5 6.1 0.00 0.00 0.00 95 1013.3
20260903112041 74 210 4.3 7.0 0.00 0.00 0.00 95 1013.9
20260903111549 74 214 4.3 7.0 0.00 0.00 0.00 95 1013.3
20260903111024 74 208 4.3 6.1 0.00 0.00 0.00 95 1013.2
20260903110521 74 214 4.3 6.1 0.00 0.00 0.00 95 1013.1
20260903110021 74 198 4.3 7.0 0.00 0.00 0.00 95 1013.1
20260903105552 74 207 4.3 7.0 0.00 0.00 0.00 96 1013.2
20260903105016 74 211 4.3 7.0 0.00 0.00 0.00 96 1013.2
20260903104526 74 227 4.3 5.2 0.00 0.00 0.00 96 1013.2
20260903104018 73 227 3.5 5.2 0.00 0.00 0.00 96 1013.3
20260903103534 73 227 3.5 5.2 0.00 0.00 0.00 96 1013.3
20260903103031 72 227 2.6 4.3 0.00 0.00 0.00 96 1013.3
20260903102536 71 227 2.6 4.3 0.00 0.00 0.00 95 1013.3
20260903102051 71 227 0.9 1.7 0.00 0.00 0.00 95 1013.2
20260903101530 71 227 0.9 1.7 0.00 0.00 0.00 95 1013.2
20260903101028 71 227 0.0 0.9 0.00 0.00 0.00 95 1013.3
20260903100557 71 227 0.0 0.9 0.00 0.00 0.00 95 1013.2
20260903100024 71 227 0.0 0.9 0.00 0.00 0.00 95 1013.2
20260903095520 71 227 0.0 0.0 0.00 0.00 0.00 95 1013.2
20260903095035 71 227 0.0 0.0 0.00 0.00 0.00 95 1013.2
20260903094536 71 227 0.0 0.0 0.00 0.00 0.00 95 1013.1
20260903094031 71 227 0.0 0.0 0.00 0.00 0.00 95 1013.3
20260903093521 71 227 0.0 0.0 0.00 0.00 0.00 95 1013.3
20260903093031 71 227 0.0 0.0 0.00 0.00 0.00 95 1013.3
20260903092526 71 227 0.0 0.0 0.00 0.00 0.00 95 1013.2
20260903092020 71 227 0.0 0.0 0.00 0.00 0.00 95 1013.3
20260903091537 71 227 0.0 0.0 0.00 0.00 0.00 95 1013.2
20260903091027 71 227 0.0 0.0 0.00 0.00 0.00 95 1013.2
20260903090543 71 227 0.0 0.0 0.00 0.00 0.00 95 1013.3
20260903090045 71 227 0.0 0.0 0.00 0.00 0.00 95 1013.2
20260903085518 71 227 0.0 0.0 0.00 0.00 0.00 95 1013.1
20260903085021 71 227 0.0 0.0 0.00 0.00 0.00 95 1013.1
20260903084535 71 227 0.0 0.0 0.00 0.00 0.00 95 1013.1
20260903084031 71 227 0.0 0.0 0.00 0.00 0.00 95 1013.2
20260903083537 71 227 0.0 0.0 0.00 0.00 0.00 95 1013.1
20260903083025 71 227 0.0 0.0 0.00 0.00 0.00 95 1013.2
20260903082521 71 227 0.0 0.0 0.00 0.00 0.00 95 1013.2
20260903082032 71 227 0.0 0.0 0.00 0.00 0.00 95 1013.2
20260903081523 71 227 0.0 0.0 0.00 0.00 0.00 94 1013.2
20260903081017 71 227 0.0 0.0 0.00 0.00 0.00 94 1013.2
20260903080533 71 227 0.0 0.0 0.00 0.00 0.00 94 1013.3
20260903080032 71 227 0.0 0.0 0.00 0.00 0.00 94 1013.3
20260903075526 71 227 0.0 0.0 0.00 0.00 0.00 94 1013.3
20260903075034 71 227 0.0 0.0 0.00 0.00 0.00 94 1013.3
20260903074535 71 227 0.0 0.0 0.00 0.00 0.00 94 1013.3
20260903074029 71 227 0.0 0.0 0.00 0.00 0.00 94 1013.2
20260903073523 72 227 0.0 0.0 0.00 0.00 0.00 94 1013.4
20260903073030 72 227 0.0 0.0 0.00 0.00 0.00 94 1013.3
20260903072521 72 227 0.0 0.0 0.00 0.00 0.00 94 1013.4
20260903072055 72 227 0.0 0.0 0.00 0.00 0.00 94 1013.5
20260903071531 72 227 0.0 0.0 0.00 0.00 0.00 94 1013.4
20260903071025 72 227 0.0 0.0 0.00 0.00 0.00 94 1013.5
20260903070523 72 227 0.0 0.0 0.00 0.00 0.00 94 1013.5
20260903070019 72 227 0.0 0.0 0.00 0.00 0.00 94 1013.7
20260903065558 72 227 0.0 0.0 0.00 0.00 0.00 94 1013.8
20260903065031 72 227 0.0 0.0 0.00 0.00 0.00 95 1013.7
20260903064529 72 227 0.0 0.0 0.00 0.00 0.00 95 1013.7
20260903064045 72 227 0.0 0.0 0.00 0.00 0.00 95 1013.8
20260903063534 72 227 0.0 0.0 0.00 0.00 0.00 95 1013.9
20260903063023 72 227 0.0 0.0 0.00 0.00 0.00 95 1013.8
20260903062521 72 227 0.0 0.0 0.00 0.00 0.00 95 1013.9
20260903062018 72 227 0.0 0.0 0.00 0.00 0.00 95 1013.8
20260903061537 72 227 0.0 0.0 0.00 0.00 0.00 95 1013.9
20260903061022 72 227 0.0 0.0 0.00 0.00 0.00 95 1013.9
20260903060555 72 227 0.0 0.0 0.00 0.00 0.00 95 1014.0
20260903060016 72 227 0.0 0.0 0.00 0.00 0.00 95 1013.9
20260903055534 72 227 0.0 0.0 0.00 0.00 0.00 94 1013.9
20260903055037 72 227 0.0 0.0 0.00 0.00 0.00 94 1013.9
20260903054535 72 227 0.0 0.0 0.00 0.00 0.00 94 1013.9
20260903054028 72 227 0.0 0.0 0.00 0.00 0.00 94 1013.8
20260903053520 72 227 0.0 0.0 0.00 0.00 0.00 94 1014.0
20260903053030 72 227 0.0 0.0 0.00 0.00 0.00 94 1013.9
20260903052526 72 227 0.0 0.0 0.00 0.00 0.00 94 1013.9
20260903052020 72 227 0.0 0.0 0.00 0.00 0.00 94 1013.9
20260903051559 72 227 0.0 0.9 0.00 0.00 0.00 94 1014.0
20260903051031 73 227 0.0 2.6 0.00 0.00 0.00 94 1014.0
20260903050524 73 227 1.7 2.6 0.00 0.00 0.00 94 1014.1
20260903050052 73 227 0.0 1.7 0.00 0.00 0.00 94 1014.1
20260903045526 73 227 0.0 0.0 0.00 0.00 0.00 94 1014.1
20260903045020 73 227 0.0 0.0 0.00 0.00 0.00 94 1014.0
20260903044524 73 227 0.0 0.9 0.00 0.00 0.00 94 1014.1
20260903044036 73 227 0.0 1.7 0.00 0.00 0.00 94 1014.2
20260903043533 73 227 1.7 1.7 0.00 0.00 0.00 93 1014.0
20260903043022 73 227 0.0 0.0 0.00 0.00 0.00 93 1014.0
20260903042525 73 227 0.0 0.0 0.00 0.00 0.00 94 1014.1
20260903042033 74 227 0.0 0.0 0.00 0.00 0.00 94 1014.0
20260903041529 74 227 0.0 0.0 0.00 0.00 0.00 94 1013.9
20260903041045 74 227 0.0 0.0 0.00 0.00 0.00 94 1014.0
20260903040521 74 227 0.0 0.0 0.00 0.00 0.00 94 1014.1
20260903040032 74 227 0.0 0.0 0.00 0.00 0.00 94 1014.1
20260903035525 74 227 0.0 0.0 0.00 0.00 0.00 94 1014.1
20260903035040 74 227 0.0 0.0 0.00 0.00 0.00 93 1014.1